Regional Weather Roundup
Issued by NWS

Home | Current Version | Previous Version | Text Only | Print | Product List | Glossary On
Versions: 1 2 3 4 5 6 7 8 9 10 11 12 13 14 15 16 17 18 19 20 21 22 23 24 25 26 27 28 29 30 31 32 33 34 35 36 37 38 39 40 41 42 43 44 45 46 47 48 49 50
000
ASCA42 TJSJ 041410
RWRPR
PUERTO RICO/U.S. VIRGIN ISLANDS HOURLY WEATHER ROUNDUP
NATIONAL WEATHER SERVICE SAN JUAN PR
1000 AM AST SAT JUL 04 2015

PRZ001-004-041500-
PUERTO RICO

CITY           SKY/WX    TMP DP  RH WIND       PRES   REMARKS
SAN JUAN LMM   MOSUNNY   86  73  66 E22       30.10S HX  93
PONCE          MOSUNNY   91  72  52 E12G21    30.00  HX  98
AGUADILLA      CLOUDY    84  72  65 E22       30.11R
CEIBA          SUNNY     86  72  62 E15G21    30.12  HX  92
$$

PRZ006-007-041500-
U.S. VIRGIN ISLANDS

CITY           SKY/WX    TMP DP  RH WIND       PRES   REMARKS
CHARLOTTE AMA  CLOUDY    90  72  55 E18G25    30.09S HX  96
CHRISTIANSTED  MOSUNNY   88  72  58 E21G29    30.09R HX  94
$$

HOURLY WEATHER ROUNDUP FOR THE NEWS MEDIA

CITY           SKY/WX    TMP DP  RH WIND       PRES   REMARKS
ORLANDO        MOSUNNY   82  74  76 CALM      30.14S
NEW YORK       CLOUDY    73  60  63 E9        29.95S
NEWARK         CLOUDY    73  58  59 E6        29.94S
CHICAGO        SUNNY     71  55  56 NW3       29.99R
HARTFORD       CLOUDY    71  57  61 SE6       29.98F
BOSTON         CLOUDY    68  60  75 CALM      30.00S
DALLAS         PTSUNNY   81  71  71 SW8       29.98R
PHILADELPHIA   CLOUDY    75  62  64 NE7       29.92R
LOS ANGELES    CLOUDY    63  60  90 CALM      29.89S
WASHINGTON DC  CLOUDY    70  68  93 CALM      29.92S FOG


USA.gov is the U.S. government's official web portal to all federal, state and local government web resources and services.